Meadville, PA

6:05 AM EST on December 12, 2019 (GMT -0500)
Port Meadville

Weather History for KGKJ - October, 2019

Change the Weather History Date:

Thursday, October 17, 2019

  Actual Average Record
Temperature  
Mean Temperature 42 °F -  
Max Temperature 43 °F 59 °F 81 °F (1956)
Min Temperature 41 °F 39 °F 28 °F (1952)
Degree Days  
Heating Degree Days 23    
Moisture  
Dew Point 39 °F    
Average Humidity 89    
Maximum Humidity 93    
Minimum Humidity 79    
Precipitation  
Precipitation 0.44 in - - ()
Sea Level Pressure  
Sea Level Pressure 29.75 in    
Wind  
Wind Speed 11 mph ()    
Max Wind Speed 16 mph    
Max Gust Speed 31 mph    
Visibility 10.0 miles    
Events Rain    
Averages and records for this station are not official NWS values.
T = Trace of Precipitation, MM = Missing Value Source: Averaged Metar Reports

Daily Weather History Graph

Daily Weather History Graph

Search for Another Location

Airport or City:

Astronomy

Oct. 17, 2019 Rise Set
Actual Time 7:34 AM EDT 6:36 PM EDT
Civil Twilight 7:06 AM EDT 7:04 PM EDT
Nautical Twilight 6:34 AM EDT 7:37 PM EDT
Astronomical Twilight 6:02 AM EDT 8:09 PM EDT
Moon 9:04 PM EDT (10/17) 11:07 AM EDT (10/17)
Length of Visible Light 11h 57m
Length of Day
11h 01m
Waning Gibbous, 87% of the Moon is Illuminated
Oct 17
Waning Gibbous
Oct 21
Last Quarter
Oct 27
New
Nov 4
First Quarter
Nov 12
Full

Hourly Weather History & Observations

Time (EDT) Temp. Windchill Dew Point Humidity Pressure Visibility Wind Dir Wind Speed Gust Speed Precip Events Conditions
12:10 AM 42.1 °F 34.9 °F 39.0 °F 89% 29.61 in 10.0 mi West 13.8 mph 24.2 mph 0.01 in Rain Light Rain
12:34 AM 42.1 °F 34.5 °F 39.0 °F 89% 29.61 in 10.0 mi West 15.0 mph 26.5 mph 0.02 in Rain Light Rain
12:53 AM 42.1 °F 35.2 °F 39.0 °F 89% 29.62 in 10.0 mi West 12.7 mph 24.2 mph 0.02 in Rain Light Rain
1:51 AM 41.0 °F 33.9 °F 39.2 °F 93% 29.61 in 10.0 mi West 12.7 mph 28.8 mph 0.01 in Rain Light Rain
1:53 AM 41.0 °F 34.7 °F 39.0 °F 93% 29.62 in 10.0 mi West 10.4 mph 28.8 mph 0.01 in Rain Light Rain
2:00 AM 41.0 °F 33.5 °F 39.0 °F 93% 29.61 in 10.0 mi West 13.8 mph 23.0 mph 0.01 in Rain Light Rain
2:53 AM 42.1 °F 35.2 °F 39.0 °F 89% 29.63 in 10.0 mi West 12.7 mph 23.0 mph 0.03 in Rain Light Rain
2:59 AM 42.1 °F 35.7 °F 39.0 °F 89% 29.61 in 10.0 mi West 11.5 mph 23.0 mph 0.01 in Rain Light Rain
3:24 AM 42.1 °F 35.7 °F 39.0 °F 89% 29.62 in 10.0 mi West 11.5 mph 25.3 mph 0.02 in Rain Light Rain
3:31 AM 42.1 °F 36.1 °F 39.0 °F 89% 29.62 in 10.0 mi West 10.4 mph 26.5 mph 0.03 in Rain Light Rain
3:41 AM 42.1 °F 35.7 °F 39.0 °F 89% 29.62 in 10.0 mi WNW 11.5 mph 20.7 mph 0.04 in Rain Light Rain
3:53 AM 42.1 °F 35.2 °F 37.9 °F 85% 29.63 in 10.0 mi WNW 12.7 mph 25.3 mph 0.04 in Rain Light Rain
4:53 AM 41.0 °F 33.1 °F 37.9 °F 89% 29.63 in 10.0 mi WNW 15.0 mph 26.5 mph 0.02 in Rain Light Rain
5:53 AM 42.1 °F 35.2 °F 39.0 °F 89% 29.63 in 10.0 mi WNW 12.7 mph 25.3 mph 0.01 in Rain Light Rain
6:53 AM 42.1 °F 34.9 °F 39.0 °F 89% 29.66 in 10.0 mi WNW 13.8 mph 28.8 mph 0.03 in Rain Light Rain
7:26 AM 41.0 °F 32.8 °F 39.0 °F 93% 29.65 in 10.0 mi WNW 16.1 mph 31.1 mph 0.02 in Rain Light Rain
7:33 AM 42.1 °F 35.7 °F 39.0 °F 89% 29.66 in 10.0 mi WNW 11.5 mph 25.3 mph 0.02 in Rain Light Rain
7:49 AM 42.8 °F 36.6 °F 39.2 °F 87% 29.67 in 10.0 mi WNW 11.5 mph 19.6 mph 0.03 in Rain Light Rain
7:53 AM 42.1 °F 36.1 °F 39.0 °F 89% 29.69 in 10.0 mi WNW 10.4 mph 19.6 mph 0.03 in Rain Light Rain
8:53 AM 42.1 °F 35.2 °F 39.0 °F 89% 29.71 in 10.0 mi WNW 12.7 mph 31.1 mph 0.02 in Rain Light Rain
9:30 AM 42.1 °F 34.5 °F 39.0 °F 89% 29.70 in 10.0 mi WNW 15.0 mph 21.9 mph 0.01 in Rain Light Rain
9:53 AM 42.1 °F 34.2 °F 39.0 °F 89% 29.73 in 10.0 mi WNW 16.1 mph 27.6 mph 0.02 in Rain Light Rain
10:05 AM 42.1 °F 34.9 °F 39.0 °F 89% 29.71 in 10.0 mi WNW 13.8 mph 29.9 mph 0.01 in Rain Light Rain
10:53 AM 43.0 °F 36.8 °F 39.9 °F 89% 29.75 in 10.0 mi WNW 11.5 mph 27.6 mph 0.04 in Rain Light Rain
11:21 AM 43.0 °F 37.2 °F 39.9 °F 89% 29.73 in 10.0 mi WNW 10.4 mph 26.5 mph 0.00 in Rain Light Rain
11:36 AM 43.0 °F 36.8 °F 39.9 °F 89% 29.74 in 10.0 mi WNW 11.5 mph 27.6 mph 0.01 in Rain Light Rain
11:53 AM 43.0 °F 36.4 °F 39.9 °F 89% 29.76 in 10.0 mi WNW 12.7 mph 28.8 mph 0.01 in Rain Light Rain
12:03 PM 43.0 °F 35.7 °F 39.9 °F 89% 29.74 in 10.0 mi WNW 15.0 mph 21.9 mph 0.00 in Rain Light Rain
12:53 PM 43.0 °F 37.7 °F 39.9 °F 89% 29.77 in 10.0 mi West 9.2 mph 18.4 mph 0.03 in Rain Light Rain
1:53 PM 42.1 °F 35.7 °F 39.0 °F 89% 29.79 in 10.0 mi West 11.5 mph 18.4 mph 0.00 in Rain Light Rain
2:30 PM 42.1 °F 34.9 °F 39.9 °F 92% 29.78 in 10.0 mi West 13.8 mph 20.7 mph 0.01 in Rain Light Rain
2:53 PM 43.0 °F 36.8 °F 41.0 °F 93% 29.80 in 10.0 mi West 11.5 mph - 0.02 in Rain Light Rain
3:05 PM 43.0 °F 36.0 °F 39.9 °F 89% 29.78 in 10.0 mi West 13.8 mph 21.9 mph 0.00 in Rain Light Rain
3:30 PM 43.0 °F 36.0 °F 39.9 °F 89% 29.78 in 10.0 mi West 13.8 mph 23.0 mph 0.01 in Rain Light Rain
3:53 PM 43.0 °F 37.2 °F 39.9 °F 89% 29.81 in 10.0 mi WNW 10.4 mph 28.8 mph 0.01 in Rain Light Rain
4:12 PM 43.0 °F 36.0 °F 39.9 °F 89% 29.80 in 10.0 mi WNW 13.8 mph 27.6 mph 0.02 in Rain Light Rain
4:53 PM 43.0 °F 36.4 °F 39.9 °F 89% 29.83 in 10.0 mi WNW 12.7 mph 19.6 mph 0.04 in Rain Light Rain
5:53 PM 42.1 °F 36.1 °F 39.9 °F 92% 29.85 in 10.0 mi WNW 10.4 mph 21.9 mph 0.01 in Rain Light Rain
6:53 PM 42.1 °F 36.1 °F 39.9 °F 92% 29.87 in 10.0 mi WNW 10.4 mph - 0.01 in Rain Light Rain
7:39 PM 42.1 °F 36.1 °F 39.9 °F 92% 29.86 in 10.0 mi WNW 10.4 mph - 0.02 in Rain Light Rain
7:42 PM 42.1 °F 36.1 °F 39.9 °F 92% 29.86 in 10.0 mi West 10.4 mph - 0.02 in Rain Light Rain
7:53 PM 42.1 °F 37.1 °F 39.9 °F 92% 29.88 in 10.0 mi WNW 8.1 mph 19.6 mph 0.02 in Rain Light Rain
8:00 PM 42.1 °F 35.7 °F 39.9 °F 92% 29.86 in 10.0 mi WNW 11.5 mph - 0.00 in Rain Light Rain
8:11 PM 42.1 °F 36.1 °F 39.0 °F 89% 29.87 in 10.0 mi WNW 10.4 mph 17.3 mph 0.00 in Rain Light Rain
8:28 PM 42.1 °F 36.6 °F 39.0 °F 89% 29.88 in 10.0 mi WNW 9.2 mph - 0.00 in Rain Light Rain
8:53 PM 42.1 °F 36.6 °F 39.0 °F 89% 29.91 in 10.0 mi WNW 9.2 mph - 0.00 in Rain Light Rain
9:07 PM 42.1 °F 36.1 °F 39.0 °F 89% 29.89 in 10.0 mi WNW 10.4 mph - 0.00 in Rain Light Rain
9:17 PM 42.1 °F 36.1 °F 37.9 °F 85% 29.89 in 10.0 mi WNW 10.4 mph 17.3 mph 0.00 in Rain Light Rain
9:53 PM 42.1 °F 37.1 °F 37.9 °F 85% 29.92 in 10.0 mi WNW 8.1 mph - 0.00 in Rain Light Rain
10:48 PM 41.0 °F 36.4 °F 37.4 °F 87% 29.90 in 10.0 mi WNW 6.9 mph - 0.02 in   Overcast
10:53 PM 41.0 °F 34.7 °F 37.9 °F 89% 29.93 in 10.0 mi WNW 10.4 mph 17.3 mph 0.02 in Rain Light Rain
11:53 PM 42.1 °F 39.2 °F 36.0 °F 79% 29.94 in 10.0 mi WNW 4.6 mph - 0.00 in   Overcast